Torna al catalogo

STARLINK-34618

AttivoComunicazioniVLEO
NORAD 64770·PAYLOAD·🇺🇸 United States

Lanciato Jul 8, 2025 da Cape Canaveral Space Force Station

Loading…

Prossimi Passaggi (prossime 24 ore)

TLE

AggiornatoSource: CelesTrak SupGP

Epoca: Sep 14, 2026, 14:26 UTC

1 64770C 25147R   26257.60187500 -.00017921  00000+0 -52934-3 0  2576
2 64770  53.1581  80.9624 0001213  97.0786 342.2568 15.34408303    14

Traccia STARLINK-34618 in tempo reale con AllMySat

Download on the App Store